Weather History for Eureka Airport, NV

Change the Weather History Date:

Saturday, November 17, 2012

  Actual Average Record
Temperature  
Mean Temperature 40 °F -  
Max Temperature 51 °F - - ()
Min Temperature 30 °F - - ()
Degree Days  
Heating Degree Days 24    
Moisture  
Dew Point 33 °F    
Average Humidity 70    
Maximum Humidity 81    
Minimum Humidity 47    
Precipitation  
Precipitation 0.00 in - - ()
Sea Level Pressure  
Sea Level Pressure 30.01 in    
Wind  
Wind Speed 8 mph ()    
Max Wind Speed 18 mph    
Max Gust Speed 24 mph    
Visibility 10.0 miles    
Events      
T = Trace of Precipitation, MM = Missing Value Source: Averaged Metar Reports

Daily Weather History Graph

Daily Weather History Graph

Search for Another Location

Airport:

Trip Planner

Search our weather history database for the weather conditions in past years. The results will help you decide how hot, cold, wet, or windy it might be!

Date:

Astronomy

Nov. 17, 2012 Rise Set
Actual Time 6:31 AM PST 4:26 PM PST
Civil Twilight 6:02 AM PST 4:55 PM PST
Nautical Twilight 5:29 AM PST 5:28 PM PST
Astronomical Twilight 4:57 AM PST 6:00 PM PST
Moon 10:19 AM PST (11/17) 8:41 PM PST (11/17)
Length of Visible Light 10h 53m
Length of Day
9h 55m
Waxing Crescent, 21% of the Moon is Illuminated
Nov 17
Waxing Crescent
Nov 20
First Quarter
Nov 28
Full
Dec 6
Last Quarter
Dec 13
New

Hourly Weather History & Observations

Time (PST) Temp. Windchill Dew Point Humidity Pressure Visibility Wind Dir Wind Speed Gust Speed Precip Events Conditions
12:15 AM 32.0 °F - 24.8 °F 75% 30.08 in 10.0 mi Calm Calm - N/A   Clear
12:35 AM 30.2 °F - 24.8 °F 80% 30.07 in 10.0 mi Calm Calm - N/A   Clear
12:55 AM 33.8 °F - 26.6 °F 75% 30.07 in 10.0 mi Calm Calm - N/A   Clear
1:15 AM 35.6 °F 31.7 °F 26.6 °F 70% 30.06 in 10.0 mi SSW 4.6 mph - N/A   Clear
1:35 AM 35.6 °F 29.2 °F 28.4 °F 75% 30.06 in 10.0 mi SSE 8.1 mph - N/A   Clear
1:55 AM 37.4 °F 32.8 °F 28.4 °F 70% 30.07 in 10.0 mi SSW 5.8 mph - N/A   Clear
2:15 AM 33.8 °F 28.6 °F 26.6 °F 75% 30.06 in 10.0 mi South 5.8 mph - N/A   Clear
2:35 AM 35.6 °F 29.9 °F 28.4 °F 75% 30.06 in 10.0 mi SSW 6.9 mph - N/A   Mostly Cloudy
2:55 AM 35.6 °F 29.9 °F 28.4 °F 75% 30.05 in 10.0 mi South 6.9 mph - N/A   Overcast
3:15 AM 39.2 °F 32.0 °F 32.0 °F 75% 30.05 in 10.0 mi SSE 11.5 mph - N/A   Mostly Cloudy
3:35 AM 39.2 °F 33.0 °F 32.0 °F 75% 30.05 in 10.0 mi South 9.2 mph - N/A   Overcast
3:55 AM 39.2 °F 31.6 °F 32.0 °F 75% 30.04 in 10.0 mi South 12.7 mph - N/A   Overcast
4:15 AM 41.0 °F 34.3 °F 32.0 °F 70% 30.04 in 10.0 mi SSE 11.5 mph - N/A   Overcast
4:35 AM 41.0 °F 34.3 °F 32.0 °F 70% 30.03 in 10.0 mi SSE 11.5 mph - N/A   Overcast
4:55 AM 41.0 °F 34.3 °F 32.0 °F 70% 30.03 in 10.0 mi SE 11.5 mph - N/A   Overcast
5:15 AM 39.2 °F 32.0 °F 32.0 °F 75% 30.03 in 10.0 mi SE 11.5 mph - N/A   Overcast
5:35 AM 39.2 °F 33.0 °F 32.0 °F 75% 30.03 in 10.0 mi SE 9.2 mph - N/A   Mostly Cloudy
5:55 AM 39.2 °F 33.0 °F 32.0 °F 75% 30.03 in 10.0 mi SE 9.2 mph - N/A   Overcast
6:15 AM 39.2 °F 33.6 °F 33.8 °F 81% 30.03 in 10.0 mi SSE 8.1 mph - N/A   Overcast
6:35 AM 41.0 °F 33.5 °F 33.8 °F 76% 30.03 in 10.0 mi SE 13.8 mph - N/A   Overcast
6:55 AM 41.0 °F 33.5 °F 33.8 °F 76% 30.03 in 10.0 mi SE 13.8 mph - N/A   Overcast
7:15 AM 41.0 °F 33.5 °F 35.6 °F 81% 30.04 in 10.0 mi SE 13.8 mph - N/A   Overcast
7:35 AM 41.0 °F 34.3 °F 35.6 °F 81% 30.04 in 10.0 mi SE 11.5 mph - N/A   Mostly Cloudy
7:55 AM 41.0 °F 33.1 °F 35.6 °F 81% 30.04 in 10.0 mi SE 15.0 mph - N/A   Mostly Cloudy
8:15 AM 44.6 °F 38.4 °F 35.6 °F 71% 30.04 in 10.0 mi SE 12.7 mph - N/A   Overcast
8:35 AM 44.6 °F 37.8 °F 35.6 °F 71% 30.04 in 10.0 mi SE 15.0 mph 19.6 mph N/A   Overcast
9:15 AM 46.4 °F 42.4 °F 35.6 °F 66% 30.05 in 10.0 mi SE 8.1 mph - N/A   Overcast
9:35 AM 46.4 °F 40.4 °F 35.6 °F 66% 30.04 in 10.0 mi SE 13.8 mph - N/A   Overcast
9:55 AM 46.4 °F 40.4 °F 35.6 °F 66% 30.04 in 10.0 mi SE 13.8 mph - N/A   Overcast
10:15 AM 46.4 °F 41.1 °F 35.6 °F 66% 30.04 in 10.0 mi SSE 11.5 mph - N/A   Overcast
10:35 AM 46.4 °F 41.9 °F 35.6 °F 66% 30.04 in 10.0 mi South 9.2 mph - N/A   Overcast
10:55 AM 46.4 °F 42.9 °F 35.6 °F 66% 30.03 in 10.0 mi SSE 6.9 mph - N/A   Overcast
11:15 AM 48.2 °F - 35.6 °F 62% 30.01 in 10.0 mi SE 4.6 mph - N/A   Overcast
11:35 AM 51.8 °F - 32.0 °F 47% 30.00 in 10.0 mi South 16.1 mph 20.7 mph N/A   Overcast
11:55 AM 50.0 °F - 32.0 °F 50% 29.99 in 10.0 mi South 16.1 mph - N/A   Overcast
12:15 PM 50.0 °F - 32.0 °F 50% 29.99 in 10.0 mi South 13.8 mph 17.3 mph N/A   Overcast
12:35 PM 50.0 °F - 33.8 °F 54% 29.98 in 10.0 mi SSW 12.7 mph 17.3 mph N/A   Overcast
12:55 PM 50.0 °F - 32.0 °F 50% 29.98 in 10.0 mi South 12.7 mph 18.4 mph N/A   Overcast
1:15 PM 50.0 °F - 33.8 °F 54% 29.97 in 10.0 mi South 17.3 mph - N/A   Mostly Cloudy
1:35 PM 48.2 °F - 32.0 °F 54% 29.97 in 10.0 mi South 13.8 mph 20.7 mph N/A   Scattered Clouds
1:55 PM 48.2 °F - 32.0 °F 54% 29.97 in 10.0 mi SSW 16.1 mph 20.7 mph N/A   Partly Cloudy
2:15 PM 51.8 °F - 33.8 °F 50% 29.96 in 10.0 mi South 17.3 mph 21.9 mph N/A   Partly Cloudy
2:35 PM 50.0 °F - 35.6 °F 58% 29.96 in 10.0 mi South 17.3 mph 24.2 mph N/A   Clear
2:55 PM 50.0 °F - 35.6 °F 58% 29.96 in 10.0 mi South 15.0 mph 21.9 mph N/A   Partly Cloudy
3:15 PM 48.2 °F - 35.6 °F 62% 29.97 in 10.0 mi SSW 13.8 mph - N/A   Mostly Cloudy
3:35 PM 48.2 °F - 35.6 °F 62% 29.97 in 10.0 mi South 15.0 mph - N/A   Overcast
3:55 PM 46.4 °F 41.1 °F 35.6 °F 66% 29.97 in 10.0 mi SSE 11.5 mph - N/A   Overcast
4:15 PM 46.4 °F 40.7 °F 35.6 °F 66% 29.97 in 10.0 mi SSE 12.7 mph - N/A   Overcast
4:35 PM 44.6 °F 38.8 °F 35.6 °F 71% 29.97 in 10.0 mi South 11.5 mph - N/A   Overcast
4:55 PM 44.6 °F 39.2 °F 35.6 °F 71% 29.96 in 10.0 mi South 10.4 mph - N/A   Overcast
5:15 PM 46.4 °F 41.9 °F 35.6 °F 66% 29.96 in 10.0 mi South 9.2 mph - N/A   Mostly Cloudy
5:35 PM 44.6 °F 38.1 °F 35.6 °F 71% 29.97 in 10.0 mi South 13.8 mph - N/A   Partly Cloudy
5:55 PM 44.6 °F 38.8 °F 35.6 °F 71% 29.97 in 10.0 mi South 11.5 mph - N/A   Partly Cloudy
6:15 PM 44.6 °F 39.2 °F 35.6 °F 71% 29.97 in 10.0 mi South 10.4 mph - N/A   Clear
6:35 PM 42.8 °F 37.5 °F 35.6 °F 76% 29.98 in 10.0 mi South 9.2 mph - N/A   Clear
6:55 PM 41.0 °F 34.3 °F 35.6 °F 81% 29.97 in 10.0 mi SSE 11.5 mph - N/A   Partly Cloudy
7:15 PM 42.8 °F 38.0 °F 35.6 °F 76% 29.97 in 10.0 mi South 8.1 mph - N/A   Partly Cloudy
7:35 PM 41.0 °F 37.1 °F 33.8 °F 76% 29.98 in 10.0 mi South 5.8 mph - N/A   Partly Cloudy
7:55 PM 41.0 °F - 33.8 °F 76% 29.98 in 10.0 mi Calm Calm - N/A   Partly Cloudy
8:15 PM 41.0 °F 37.1 °F 32.0 °F 70% 29.98 in 10.0 mi SW 5.8 mph - N/A   Clear
8:35 PM 41.0 °F 35.8 °F 33.8 °F 76% 29.98 in 10.0 mi SSW 8.1 mph 17.3 mph N/A   Clear
8:55 PM 41.0 °F 38.0 °F 33.8 °F 76% 29.98 in 10.0 mi South 4.6 mph - N/A   Clear
9:15 PM 41.0 °F 33.5 °F 33.8 °F 76% 29.98 in 10.0 mi South 13.8 mph 18.4 mph N/A   Clear
9:35 PM 41.0 °F 32.2 °F 33.8 °F 76% 29.98 in 10.0 mi SSE 18.4 mph 21.9 mph N/A   Clear
9:55 PM 41.0 °F 32.8 °F 35.6 °F 81% 29.98 in 10.0 mi South 16.1 mph - N/A   Clear
10:15 PM 41.0 °F 33.5 °F 33.8 °F 76% 29.98 in 10.0 mi SSE 13.8 mph - N/A   Clear
10:35 PM 41.0 °F 34.3 °F 33.8 °F 76% 29.99 in 10.0 mi SSE 11.5 mph - N/A   Scattered Clouds
10:55 PM 41.0 °F 35.2 °F 35.6 °F 81% 30.00 in 10.0 mi SE 9.2 mph - N/A   Overcast
11:15 PM 41.0 °F 38.0 °F 33.8 °F 76% 30.00 in 10.0 mi South 4.6 mph - N/A   Overcast
11:35 PM 41.0 °F 35.8 °F 33.8 °F 76% 30.00 in 10.0 mi SSE 8.1 mph - N/A   Mostly Cloudy
11:55 PM 41.0 °F 33.9 °F 35.6 °F 81% 29.99 in 10.0 mi SSE 12.7 mph - N/A   Partly Cloudy